1532660400.55,53615,18.75,74202.5,4.99,-3.63,-2.47,0,*7A
1532660401.74,53616,18.69,74200.8,4.99,-3.23,-2.27,0,*7B
1532660402.93,53617,18.75,74202.8,4.99,-3.39,-2.27,0,*71
1532660404.18,53618,18.75,74200.0,5.01,-3.59,-2.23,0,*7C
1532660405.4,53619,18.75,74206.0,5.01,-3.83,-2.43,0,*7C
1532660406.64,53620,18.75,74202.5,4.99,-3.67,-2.47,0,*78
1532660407.87,53621,18.75,74204.8,4.99,-3.87,-2.63,0,*71
1532660409.09,53622,18.75,74200.8,4.99,-3.79,-2.59,0,*7A
1532660410.32,53623,18.75,74202.8,4.99,-3.75,-2.51,0,*7F
1532660411.57,53624,18.75,74200.0,4.99,-3.67,-2.59,0,*73
1532660412.78,53625,18.75,74204.3,4.99,-3.67,-2.39,0,*74
1532660414.03,53626,18.69,74198.5,4.99,-3.67,-2.47,0,*7E
1532660415.3,53627,18.69,74202.3,5.01,-3.71,-2.55,0,*7B
1532660416.54,53628,18.69,74200.5,5.01,-3.63,-2.35,0,*71
1532660417.78,53629,18.75,74204.0,5.01,-3.59,-2.43,0,*78
1532660419.05,53630,18.75,74200.8,5.01,-3.59,-2.47,0,*74
1532660420.31,53631,18.75,74204.3,5.01,-3.71,-2.47,0,*7F
1532660421.56,53632,18.75,74204.8,5.03,-3.63,-2.47,0,*7D
1532660422.8,53633,18.75,74202.8,5.03,-3.71,-2.55,0,*7C
1532660424.05,53634,18.75,74200.3,5.03,-3.63,-2.47,0,*7B
1532660425.31,53635,18.75,74206.5,5.01,-3.51,-2.47,0,*79
1532660426.56,53636,18.69,74200.3,5.01,-3.75,-2.55,0,*7F
1532660427.83,53637,18.75,74200.3,5.01,-3.63,-2.47,0,*7A
1532660429.1,53638,18.75,74202.5,5.01,-3.63,-2.47,0,*75
1532660430.35,53639,18.75,74204.5,5.03,-3.63,-2.47,0,*76
1532660431.61,53640,18.75,74204.0,5.01,-3.71,-2.55,0,*7A
1532660432.84,53641,18.75,74204.0,5.03,-3.83,-2.67,0,*75
1532660434.07,53642,18.75,74204.8,5.03,-3.83,-2.71,0,*71
1532660435.29,53643,18.69,74200.5,5.03,-3.95,-2.75,0,*73
1532660436.5,53644,18.75,74200.8,5.01,-3.87,-2.83,0,*7C
1532660437.75,53645,18.75,74206.8,5.01,-3.83,-2.59,0,*7E
1532660439.0,53646,18.75,74200.5,5.01,-3.75,-2.67,0,*79
1532660440.25,53647,18.75,74202.5,5.01,-3.75,-2.67,0,*78
1532660441.5,53648,18.75,74200.3,5.01,-3.83,-2.67,0,*7E
1532660442.74,53649,18.75,74202.0,5.01,-3.83,-2.59,0,*72
1532660443.99,53650,18.69,74200.5,5.01,-3.75,-2.59,0,*73
1532660445.21,53651,18.69,74202.8,5.03,-3.87,-2.75,0,*73
1532660446.45,53652,18.75,74200.0,5.03,-3.59,-2.59,0,*7D
1532660447.67,53653,18.75,74200.5,5.01,-3.31,-2.31,0,*7E
1532660448.91,53654,18.69,74200.0,5.01,-2.83,-1.91,0,*78
1532660450.15,53655,18.75,74202.8,5.01,-3.19,-2.07,0,*77
1532660451.39,53656,18.75,74200.3,5.01,-3.43,-2.31,0,*7E
1532660452.61,53657,18.75,74204.0,5.03,-3.51,-2.43,0,*7B
1532660453.85,53658,18.75,74202.5,5.03,-3.71,-2.67,0,*70
1532660455.1,53659,18.75,74200.5,5.03,-3.59,-2.55,0,*7A
1532660456.34,53660,18.75,74202.8,5.03,-3.63,-2.59,0,*75
1532660457.6,53661,18.75,74202.5,5.01,-3.63,-2.59,0,*76
1532660458.87,53662,18.75,74202.0,5.01,-3.63,-2.71,0,*7F
1532660460.11,53663,18.69,74202.8,5.01,-3.87,-2.75,0,*70
1532660461.36,53664,18.75,74198.5,5.03,-3.71,-2.71,0,*78
1532660462.61,53665,18.69,74198.3,5.01,-3.83,-2.75,0,*72
1532660463.87,53666,18.75,74198.5,5.01,-3.63,-2.59,0,*71
1532660465.14,53667,18.75,74202.5,5.01,-3.71,-2.67,0,*7E
1532660466.4,53668,18.75,74202.3,5.01,-3.71,-2.67,0,*71
1532660467.67,53669,18.75,74200.5,5.01,-3.63,-2.59,0,*7E
1532660468.94,53670,18.69,74202.5,5.01,-3.63,-2.55,0,*7A
1532660470.16,53671,18.75,74200.3,5.03,-3.75,-2.71,0,*78
1532660471.39,53672,18.75,74200.3,5.03,-3.83,-2.71,0,*72
1532660472.66,53673,18.69,74200.8,5.01,-3.71,-2.67,0,*7B
1532660473.9,53674,18.69,74198.5,5.03,-3.63,-2.59,0,*70
1532660475.17,53675,18.75,74202.5,5.01,-3.63,-2.55,0,*7F
1532660476.39,53676,18.69,74196.8,5.03,-3.83,-2.75,0,*72
1532660477.59,53677,18.75,74202.0,5.03,-3.83,-2.83,0,*7A
1532660478.82,53678,18.75,74200.0,5.03,-3.75,-2.71,0,*71
1532660480.06,53679,18.75,74200.0,5.01,-3.83,-2.71,0,*7B
1532660481.31,53680,18.75,74200.0,5.01,-3.75,-2.75,0,*70
1532660482.54,53681,18.75,74200.0,5.03,-3.83,-2.71,0,*7E
1532660483.79,53682,18.75,74200.8,5.01,-3.75,-2.71,0,*76
1532660485.04,53683,18.75,74202.3,5.01,-3.83,-2.71,0,*7E
1532660486.26,53684,18.75,74202.5,5.01,-3.83,-2.83,0,*74
1532660487.51,53685,18.75,74200.8,5.01,-3.83,-2.75,0,*7C
1532660488.76,53686,18.75,74202.0,5.01,-3.75,-2.75,0,*76
1532660490.02,53687,18.75,74204.0,5.01,-3.71,-2.67,0,*70
1532660491.27,53688,18.75,74202.5,5.01,-3.83,-2.75,0,*71
1532660492.5,53689,18.69,74198.0,5.03,-3.83,-2.75,0,*72
1532660493.75,53690,18.75,74202.5,5.01,-3.75,-2.75,0,*71
1532660495.0,53691,18.75,74200.8,5.01,-3.75,-2.71,0,*74
1532660496.23,53692,18.75,74200.3,5.03,-3.75,-2.71,0,*75
1532660497.48,53693,18.69,74196.5,5.01,-3.83,-2.75,0,*7B
1532660498.74,53694,18.75,74202.8,5.01,-3.71,-2.71,0,*75
1532660499.97,53695,18.69,74200.8,5.03,-3.83,-2.71,0,*7B
1532660501.22,53696,18.75,74202.5,5.01,-3.83,-2.75,0,*7E
1532660502.46,53697,18.69,74200.0,5.03,-3.71,-2.71,0,*74
1532660503.71,53698,18.69,74198.3,5.01,-3.83,-2.71,0,*74
1532660504.92,53699,18.69,74200.3,5.01,-3.87,-2.87,0,*78
1532660506.17,53700,18.69,74198.5,5.01,-3.87,-2.75,0,*74
1532660507.43,53701,18.75,74202.3,5.01,-3.71,-2.71,0,*78
1532660508.7,53702,18.75,74204.3,5.01,-3.71,-2.71,0,*7B
1532660509.95,53703,18.75,74202.8,5.01,-3.75,-2.67,0,*79
1532660511.21,53704,18.69,74200.8,5.01,-3.71,-2.67,0,*7A
1532660512.46,53705,18.75,74202.0,5.01,-3.75,-2.71,0,*78
1532660513.66,53706,18.75,74198.8,5.03,-3.83,-2.83,0,*7D
1532660514.86,53707,18.69,74196.5,4.99,-3.91,-2.87,0,*79
1532660516.07,53708,18.69,74198.3,5.01,-3.87,-2.87,0,*71
1532660517.32,53709,18.75,74200.0,5.01,-3.83,-2.75,0,*79
1532660518.54,53710,18.75,74202.5,5.01,-3.87,-2.83,0,*7C
1532660519.75,53711,18.75,74204.3,5.01,-3.87,-2.83,0,*7D
1532660520.97,53712,18.69,74196.0,5.01,-3.83,-2.83,0,*7A
1532660522.22,53713,18.69,74202.8,5.01,-3.75,-2.75,0,*7B
1532660523.41,53714,18.69,74196.0,5.03,-3.87,-2.83,0,*7A
1532660524.63,53715,18.69,74200.0,5.01,-3.83,-2.83,0,*7D
1532660525.86,53716,18.75,74204.5,4.99,-3.91,-2.75,0,*74
1532660527.08,53717,18.75,74200.0,4.99,-3.87,-2.75,0,*72
1532660528.28,53718,18.69,74198.5,4.99,-3.87,-2.79,0,*71
1532660529.5,53719,18.75,74200.5,4.99,-3.79,-2.75,0,*7D
1532660530.73,53720,18.75,74200.3,4.99,-3.79,-2.71,0,*73
1532660531.96,53721,18.75,74202.5,4.99,-3.87,-2.75,0,*77
1532660533.2,53722,18.75,74200.0,5.01,-3.87,-2.75,0,*74
1532660534.45,53723,18.69,74198.0,5.01,-3.83,-2.75,0,*71
1532660535.7,53724,18.75,74202.3,5.01,-3.83,-2.71,0,*72
1532660536.95,53725,18.75,74202.0,5.01,-3.83,-2.75,0,*77
1532660538.2,53726,18.75,74202.5,5.01,-3.75,-2.67,0,*7E
1532660539.44,53727,18.75,74202.3,5.01,-3.87,-2.75,0,*71
1532660540.66,53728,18.75,74200.3,5.03,-3.87,-2.75,0,*7C
1532660541.91,53729,18.75,74200.8,5.01,-3.75,-2.59,0,*7C
1532660543.16,53730,18.69,74202.0,5.01,-3.75,-2.71,0,*7E
1532660544.38,53731,18.75,74200.0,5.03,-3.75,-2.75,0,*79
1532660545.57,53732,18.69,74198.0,4.99,-3.87,-2.79,0,*79
1532660546.79,53733,18.69,74200.3,5.01,-3.83,-2.83,0,*79
1532660548.04,53734,18.69,74200.0,5.01,-3.83,-2.71,0,*73
1532660549.29,53735,18.69,74200.0,5.01,-3.83,-2.71,0,*72
1532660550.48,53736,18.75,74200.3,4.99,-3.87,-2.79,0,*7D
1532660551.68,53737,18.75,74202.0,4.99,-3.87,-2.79,0,*7C
1532660552.87,53738,18.69,74198.0,4.99,-3.87,-2.79,0,*73
1532660554.07,53739,18.75,74202.5,4.99,-3.79,-2.79,0,*73
1532660555.33,53740,18.75,74200.0,5.01,-3.63,-2.55,0,*78
1532660556.6,53741,18.69,74200.0,5.01,-3.63,-2.55,0,*79
1532660557.87,53742,18.69,74200.3,5.01,-3.71,-2.67,0,*78
1532660559.12,53743,18.69,74198.8,5.01,-3.83,-2.67,0,*74
1532660560.37,53744,18.69,74198.5,5.01,-3.83,-2.71,0,*74
1532660561.62,53745,18.69,74200.3,5.01,-3.75,-2.67,0,*7B
1532660562.87,53746,18.69,74200.3,5.01,-3.83,-2.75,0,*72
1532660564.08,53747,18.69,74198.5,5.01,-3.95,-2.83,0,*7D
1532660565.35,53748,18.69,74200.3,5.01,-3.71,-2.67,0,*72
1532660566.6,53749,18.75,74200.8,5.01,-3.75,-2.71,0,*70
1532660567.85,53750,18.69,74200.5,5.01,-3.83,-2.71,0,*71
1532660569.1,53751,18.75,74202.0,5.01,-3.83,-2.71,0,*70
1532660570.35,53752,18.69,74200.3,5.01,-3.75,-2.71,0,*7A
1532660571.6,53753,18.75,74202.8,5.01,-3.83,-2.75,0,*76
1532660572.84,53754,18.69,74200.5,5.01,-3.95,-2.75,0,*76
1532660574.09,53755,18.69,74196.5,5.01,-3.87,-2.71,0,*70
1532660575.3,53756,18.75,74202.0,5.01,-3.87,-2.83,0,*7E
1532660576.55,53757,18.69,74200.8,5.01,-3.83,-2.75,0,*72
1532660577.77,53758,18.75,74204.0,5.01,-3.95,-2.83,0,*73
1532660578.99,53759,18.75,74204.5,5.01,-3.95,-2.83,0,*72
1532660580.23,53760,18.75,74202.8,5.01,-3.87,-2.71,0,*76
1532660581.45,53761,18.75,74200.3,5.01,-3.95,-2.83,0,*79
1532660582.67,53762,18.69,74202.8,5.03,-3.87,-2.71,0,*76
1532660583.93,53763,18.69,74200.8,5.01,-3.63,-2.59,0,*75
1532660585.2,53764,18.69,74200.5,5.01,-3.71,-2.67,0,*7C
1532660586.42,53765,18.69,74198.5,5.03,-3.75,-2.75,0,*78
1532660587.65,53766,18.69,74198.8,5.03,-3.75,-2.75,0,*7B
1532660588.9,53767,18.69,74200.5,5.01,-3.75,-2.67,0,*7B
1532660590.15,53768,18.69,74202.5,5.01,-3.75,-2.67,0,*74
1532660591.37,53769,18.75,74202.3,5.03,-3.75,-2.59,0,*7A
1532660592.62,53770,18.75,74200.3,5.03,-3.71,-2.71,0,*7C
1532660593.87,53771,18.69,74200.8,5.01,-3.75,-2.71,0,*7B
1532660595.09,53772,18.69,74198.3,5.03,-3.83,-2.71,0,*73
1532660596.34,53773,18.69,74200.0,5.01,-3.75,-2.75,0,*7D
1532660597.58,53774,18.69,74200.8,5.03,-3.63,-2.59,0,*71
1532660598.84,53775,18.69,74196.3,5.01,-3.75,-2.67,0,*78
1532660600.08,53776,18.75,74198.5,5.01,-3.75,-2.59,0,*76
1532660601.32,53777,18.69,74200.3,5.03,-3.71,-2.55,0,*7D
1532660602.55,53778,18.75,74202.5,5.03,-3.75,-2.67,0,*77
1532660603.78,53779,18.69,74198.0,5.03,-3.83,-2.75,0,*7C
1532660605.0,53780,18.69,74196.5,5.03,-3.75,-2.71,0,*77
1532660606.2,53781,18.69,74200.8,5.07,-3.83,-2.79,0,*73
1532660607.42,53782,18.69,74196.8,5.03,-3.83,-2.75,0,*78
1532660608.65,53783,18.69,74198.5,5.03,-3.95,-2.75,0,*7E
1532660609.84,53784,18.69,74200.5,5.03,-3.87,-2.83,0,*73
1532660611.03,53785,18.69,74196.3,5.03,-3.95,-2.87,0,*75
1532660612.22,53786,18.69,74202.0,5.03,-3.87,-2.87,0,*75
1532660613.42,53787,18.69,74200.5,5.03,-3.95,-2.87,0,*77
1532660614.64,53788,18.69,74200.0,5.01,-3.95,-2.87,0,*7A
1532660615.86,53789,18.69,74200.0,5.03,-4.01,-2.87,0,*73
1532660617.07,53790,18.69,74196.3,5.01,-4.09,-2.95,0,*72
1532660618.27,53791,18.75,74200.0,5.03,-3.95,-2.83,0,*74
1532660619.49,53792,18.75,74196.8,5.01,-3.95,-2.83,0,*75
1532660620.73,53793,18.69,74198.5,5.01,-3.83,-2.75,0,*7A
1532660621.98,53794,18.75,74202.3,5.01,-3.87,-2.75,0,*79
1532660623.2,53795,18.69,74200.8,5.01,-3.95,-2.83,0,*72
1532660624.41,53796,18.69,74196.5,5.01,-3.87,-2.83,0,*72
1532660625.64,53797,18.69,74198.5,5.03,-3.75,-2.67,0,*76
1532660626.9,53798,18.69,74198.8,5.01,-3.71,-2.59,0,*72
1532660628.15,53799,18.69,74200.8,5.01,-3.83,-2.71,0,*74
1532660629.4,53800,18.69,74202.5,5.01,-3.75,-2.67,0,*75
1532660630.62,53801,18.69,74202.0,5.03,-3.83,-2.71,0,*78
1532660631.87,53802,18.75,74200.0,5.01,-3.83,-2.75,0,*7D
1532660633.1,53803,18.69,74198.5,5.03,-3.83,-2.71,0,*7A
1532660634.35,53804,18.69,74200.8,5.01,-3.75,-2.71,0,*76
1532660635.59,53805,18.69,74196.3,5.03,-3.63,-2.67,0,*75
1532660636.82,53806,18.75,74200.3,5.03,-3.75,-2.67,0,*71
1532660638.05,53807,18.69,74196.8,5.03,-3.83,-2.71,0,*7E
1532660639.29,53808,18.69,74200.5,5.01,-3.87,-2.75,0,*73
1532660640.48,53809,18.75,74202.8,5.03,-3.87,-2.87,0,*7D
1532660641.67,53810,18.69,74198.8,5.03,-3.87,-2.83,0,*71
1532660642.92,53811,18.69,74200.3,5.01,-3.75,-2.75,0,*76
1532660644.14,53812,18.69,74200.0,5.03,-3.87,-2.75,0,*7A
1532660645.33,53813,18.69,74200.8,5.03,-3.87,-2.83,0,*72
1532660646.58,53814,18.69,74200.3,5.01,-3.75,-2.67,0,*70
1532660647.81,53815,18.69,74198.5,5.03,-3.75,-2.75,0,*70
1532660649.05,53816,18.75,74202.8,5.01,-3.87,-2.71,0,*78
1532660650.27,53817,18.69,74200.0,5.03,-3.87,-2.75,0,*7F
1532660651.54,53818,18.69,74198.5,5.01,-3.71,-2.67,0,*78
1532660652.77,53819,18.69,74200.5,5.03,-3.75,-2.71,0,*78
1532660653.99,53820,18.69,74198.5,5.03,-3.83,-2.71,0,*7B
1532660655.22,53821,18.69,74200.8,5.03,-3.95,-2.75,0,*79
1532660656.41,53822,18.69,74202.0,5.03,-3.87,-2.83,0,*70
1532660657.63,53823,18.69,74196.3,5.03,-3.87,-2.75,0,*78
1532660658.87,53824,18.75,74202.8,5.03,-3.71,-2.71,0,*72
1532660660.06,53825,18.69,74200.0,5.03,-3.87,-2.87,0,*73
1532660661.25,53826,18.69,74196.3,5.03,-3.95,-2.87,0,*73
1532660662.45,53827,18.69,74200.8,5.07,-3.91,-2.79,0,*73
1532660663.67,53828,18.69,74198.8,5.01,-3.95,-2.87,0,*7F
1532660664.86,53829,18.75,74202.3,5.03,-3.87,-2.83,0,*7B
1532660666.08,53830,18.69,74202.5,5.03,-3.87,-2.75,0,*7A
1532660667.27,53831,18.75,74204.3,5.03,-3.95,-2.87,0,*75
1532660668.52,53832,18.69,74200.0,5.01,-4.01,-2.87,0,*7E
1532660669.71,53833,18.69,74202.3,5.03,-3.87,-2.83,0,*70
1532660670.96,53834,18.69,74196.8,5.01,-3.83,-2.75,0,*78
1532660672.21,53835,18.75,74200.3,5.01,-3.83,-2.71,0,*7D
1532660673.43,53836,18.69,74202.8,5.03,-3.83,-2.75,0,*78
1532660674.66,53837,18.75,74202.5,5.03,-3.75,-2.71,0,*74
1532660675.9,53838,18.69,74196.8,5.01,-3.87,-2.75,0,*70
1532660677.1,53839,18.69,74202.3,5.03,-3.75,-2.83,0,*77
1532660678.3,53840,18.69,74202.5,5.03,-3.83,-2.83,0,*70
1532660679.55,53841,18.69,74200.3,5.01,-3.83,-2.75,0,*7A
1532660680.74,53842,18.69,74198.3,5.03,-3.87,-2.83,0,*76
1532660681.93,53843,18.75,74202.0,5.03,-3.87,-2.83,0,*77
1532660683.17,53844,18.69,74200.5,5.03,-3.71,-2.71,0,*74
1532660684.41,53845,18.69,74202.8,5.03,-3.71,-2.71,0,*75
1532660685.68,53846,18.69,74202.8,5.01,-3.63,-2.67,0,*70
1532660686.92,53847,18.69,74206.3,5.03,-3.71,-2.67,0,*70
1532660688.17,53848,18.69,74200.3,5.03,-3.71,-2.67,0,*7F
1532660689.41,53849,18.75,74200.8,5.03,-3.71,-2.67,0,*7E
1532660690.64,53850,18.69,74202.5,5.03,-3.75,-2.71,0,*75
1532660691.86,53851,18.69,74200.5,5.03,-3.75,-2.71,0,*74
1532660693.06,53852,18.69,74200.3,5.03,-3.75,-2.83,0,*7A
1532660694.28,53853,18.69,74200.8,5.01,-3.83,-2.83,0,*70
1532660695.51,53854,18.69,74200.0,5.03,-3.75,-2.75,0,*75
1532660696.73,53855,18.69,74200.3,5.03,-3.83,-2.75,0,*7D
1532660697.98,53856,18.69,74202.3,5.03,-3.71,-2.71,0,*77
1532660699.17,53857,18.75,74202.0,5.03,-3.87,-2.83,0,*72
1532660700.39,53858,18.69,74198.0,5.03,-3.87,-2.75,0,*74
1532660701.63,53859,18.69,74198.8,5.07,-3.71,-2.67,0,*7B
1532660702.85,53860,18.69,74198.5,5.03,-3.83,-2.75,0,*7B
1532660704.08,53861,18.75,74202.0,5.07,-3.79,-2.71,0,*7F
1532660705.32,53862,18.69,74202.0,5.07,-3.71,-2.67,0,*73
1532660706.57,53863,18.69,74202.8,5.03,-3.71,-2.67,0,*76
1532660707.79,53864,18.69,74200.3,5.03,-3.83,-2.75,0,*7F
1532660709.03,53865,18.69,74198.3,5.03,-3.71,-2.67,0,*70
1532660710.28,53866,18.69,74202.8,5.03,-3.71,-2.67,0,*73
1532660711.5,53867,18.69,74198.8,5.03,-3.75,-2.71,0,*71
1532660712.71,53868,18.69,74202.0,5.07,-3.71,-2.79,0,*76
1532660713.9,53869,18.69,74202.5,5.03,-3.87,-2.83,0,*7F
1532660715.09,53870,18.69,74206.3,5.03,-3.87,-2.87,0,*73
1532660716.29,53871,18.69,74200.5,5.07,-3.91,-2.83,0,*75
1532660717.52,53872,18.69,74200.5,5.07,-3.79,-2.71,0,*7D
1532660718.72,53873,18.69,74198.8,5.07,-3.91,-2.83,0,*77
1532660719.94,53874,18.69,74200.0,5.03,-3.87,-2.75,0,*7A
1532660721.13,53875,18.69,74200.8,5.07,-3.91,-2.79,0,*74
1532660722.36,53876,18.69,74200.5,5.07,-3.83,-2.71,0,*7C
1532660723.58,53877,18.69,74200.8,5.07,-3.79,-2.67,0,*7F
1532660724.83,53878,18.69,74200.5,5.07,-3.71,-2.71,0,*7F
1532660726.09,53879,18.69,74200.0,5.09,-3.71,-2.67,0,*77
1532660727.3,53880,18.69,74198.0,5.07,-3.71,-2.79,0,*70
1532660728.53,53881,18.69,74202.5,5.07,-3.83,-2.71,0,*74
1532660729.75,53882,18.69,74200.0,5.07,-3.83,-2.71,0,*77
1532660730.98,53883,18.69,74202.5,5.07,-3.79,-2.67,0,*74
1532660732.2,53884,18.69,74206.3,5.07,-3.79,-2.71,0,*74
1532660733.4,53885,18.69,74200.3,5.07,-3.83,-2.79,0,*78
1532660734.59,53886,18.69,74202.0,5.07,-3.91,-2.79,0,*78
1532660735.79,53887,18.69,74202.5,5.07,-3.91,-2.83,0,*7C
1532660737.01,53888,18.69,74200.3,5.01,-3.83,-2.83,0,*76
1532660738.21,53889,18.69,74202.3,5.07,-3.83,-2.83,0,*71
1532660739.45,53890,18.69,74200.8,5.01,-4.01,-2.87,0,*76
1532660740.65,53891,18.69,74202.8,5.03,-3.95,-2.87,0,*7F
1532660741.84,53892,18.75,74202.3,5.03,-3.95,-2.87,0,*7C
1532660743.06,53893,18.69,74198.3,5.03,-3.87,-2.75,0,*73
1532660744.25,53894,18.69,74200.3,5.03,-3.87,-2.83,0,*7D
1532660745.45,53895,18.69,74200.5,5.03,-3.95,-2.87,0,*7B
1532660746.67,53896,18.69,74198.5,5.03,-4.01,-2.87,0,*72
1532660747.86,53897,18.69,74202.0,5.03,-3.95,-2.83,0,*7D
1532660749.05,53898,18.69,74200.0,5.03,-3.87,-2.87,0,*75
1532660750.25,53899,18.69,74198.3,5.03,-3.95,-2.83,0,*73
1532660751.52,53900,18.69,74200.5,5.01,-3.59,-2.75,0,*79
1532660752.76,53901,18.69,74202.0,5.03,-3.51,-2.67,0,*71
1532660754.01,53902,18.69,74200.8,5.03,-3.51,-2.71,0,*75
1532660755.22,53903,18.69,74204.5,5.03,-3.63,-2.83,0,*78
1532660756.44,53904,18.69,74194.5,5.07,-3.59,-2.79,0,*77
1532660757.65,53905,18.69,74200.0,5.07,-3.59,-2.79,0,*76
1532660758.9,53906,18.69,74200.0,5.07,-3.55,-2.67,0,*76
1532660760.11,53907,18.69,74202.0,5.07,-3.59,-2.79,0,*74
1532660761.32,53908,18.69,74198.8,5.07,-3.55,-2.79,0,*77
1532660762.53,53909,18.69,74200.8,5.07,-3.55,-2.79,0,*76
1532660763.78,53910,18.69,74200.8,5.03,-3.63,-2.75,0,*73
1532660764.99,53911,18.69,74204.0,5.03,-3.59,-2.83,0,*72
1532660766.23,53912,18.69,74202.0,5.01,-3.71,-2.83,0,*79
1532660767.47,53913,18.69,74200.3,5.03,-3.63,-2.75,0,*70
1532660768.72,53914,18.69,74202.8,5.03,-3.59,-2.75,0,*7E
1532660769.94,53915,18.69,74198.8,5.03,-3.63,-2.83,0,*7F
1532660771.15,53916,18.69,74202.8,5.03,-3.59,-2.83,0,*75
1532660772.37,53917,18.69,74202.5,5.07,-3.59,-2.79,0,*75
1532660773.59,53918,18.69,74202.5,5.03,-3.59,-2.83,0,*7B
1532660774.8,53919,18.69,74200.0,5.03,-3.63,-2.83,0,*73
1532660776.05,53920,18.69,74202.3,5.03,-3.59,-2.75,0,*79
1532660777.32,53921,18.69,74200.0,5.01,-3.63,-2.71,0,*77
1532660778.56,53922,18.69,74200.0,5.03,-3.59,-2.75,0,*7B
1532660779.83,53923,18.69,74198.8,5.01,-3.59,-2.75,0,*78
1532660781.08,53924,18.69,74202.8,5.03,-3.59,-2.75,0,*7D
1532660782.35,53925,18.69,74196.5,5.01,-3.59,-2.75,0,*7E
1532660783.56,53926,18.69,74202.0,5.03,-3.55,-2.79,0,*7F
1532660784.78,53927,18.69,74202.3,5.03,-3.63,-2.83,0,*7E
1532660786.01,53928,18.69,74200.3,5.01,-3.71,-2.87,0,*74
1532660787.23,53929,18.69,74202.8,5.03,-3.63,-2.87,0,*74
1532660788.44,53930,18.69,74202.3,5.03,-3.71,-2.87,0,*7F
1532660789.68,53931,18.69,74204.5,5.01,-3.71,-2.87,0,*7C
1532660790.92,53932,18.69,74200.0,5.01,-3.71,-2.87,0,*7F
1532660792.15,53933,18.69,74200.5,5.01,-3.71,-2.87,0,*7E
1532660793.39,53934,18.69,74202.5,5.01,-3.63,-2.83,0,*7E
1532660794.66,53935,18.69,74202.0,5.01,-3.59,-2.71,0,*7B
1532660795.9,53936,18.69,74202.5,5.01,-3.63,-2.83,0,*7C
1532660797.14,53937,18.69,74204.3,5.01,-3.63,-2.87,0,*79
1532660798.41,53938,18.69,74202.5,5.01,-3.63,-2.75,0,*7B
1532660799.62,53939,18.69,74200.0,5.03,-3.63,-2.83,0,*71
1532660800.87,53940,18.69,74200.3,5.03,-3.63,-2.75,0,*76
1532660802.08,53941,18.69,74202.5,5.03,-3.71,-2.87,0,*79
1532660803.35,53942,18.69,74202.0,5.01,-3.59,-2.71,0,*7B
1532660804.6,53943,18.69,74198.5,5.03,-3.51,-2.67,0,*77
1532660805.85,53944,18.69,74200.8,5.03,-3.59,-2.75,0,*7B
1532660807.06,53945,18.69,74204.8,5.03,-3.63,-2.83,0,*7A
1532660808.28,53946,18.69,74200.5,5.03,-3.63,-2.83,0,*79
1532660809.55,53947,18.69,74204.0,5.01,-3.63,-2.75,0,*73
1532660810.76,53948,18.69,74200.0,5.03,-3.71,-2.87,0,*70
1532660811.98,53949,18.69,74200.8,5.03,-3.63,-2.83,0,*76
1532660813.22,53950,18.69,74204.3,5.01,-3.63,-2.83,0,*7C
1532660814.49,53951,18.69,74202.8,5.01,-3.51,-2.71,0,*71
1532660815.73,53952,18.69,74198.3,5.03,-3.47,-2.67,0,*70
1532660816.95,53953,18.69,74204.5,5.03,-3.59,-2.83,0,*74
1532660818.19,53954,18.69,74198.0,5.03,-3.59,-2.75,0,*7A
1532660819.44,53955,18.69,74198.0,5.01,-3.59,-2.87,0,*74
1532660820.66,53956,18.69,74202.8,5.01,-3.75,-2.87,0,*79
1532660821.85,53957,18.69,74200.0,5.03,-3.75,-2.83,0,*7E
1532660823.07,53958,18.69,74202.8,5.03,-3.63,-2.83,0,*76
1532660824.34,53959,18.69,74200.8,5.01,-3.51,-2.67,0,*7E
1532660825.61,53960,18.69,74200.5,5.01,-3.51,-2.71,0,*73
1532660826.87,53961,18.69,74200.5,5.01,-3.43,-2.47,0,*74
1532660828.14,53962,18.69,74204.0,5.01,-3.43,-2.59,0,*78
1532660829.33,53963,18.69,74204.3,5.03,-3.31,-2.35,0,*74
1532660830.55,53964,18.69,74204.0,5.01,-3.07,-2.23,0,*73
1532660831.74,53965,18.69,74198.8,5.03,-2.87,-2.23,0,*79
1532660832.96,53966,18.69,74202.3,5.03,-2.99,-2.07,0,*73
1532660834.2,53967,18.69,74204.3,5.03,-3.47,-2.59,0,*7B
1532660835.44,53968,18.69,74202.0,5.03,-3.51,-2.67,0,*7E
1532660836.69,53969,18.69,74200.5,5.03,-3.51,-2.67,0,*7F
1532660837.93,53970,18.69,74202.5,5.03,-3.51,-2.67,0,*77
1532660839.18,53971,18.69,74202.0,5.07,-3.47,-2.67,0,*75
1532660840.42,53972,18.69,74200.5,5.07,-3.43,-2.55,0,*73
1532660841.64,53973,18.69,74200.8,5.03,-3.35,-2.47,0,*74
1532660842.86,53974,18.69,74198.5,5.03,-3.43,-2.43,0,*76
1532660844.1,53975,18.69,74200.3,5.03,-3.43,-2.55,0,*70
1532660845.36,53976,18.69,74204.3,5.09,-3.43,-2.63,0,*7C
1532660846.61,53977,18.69,74200.8,5.07,-3.47,-2.67,0,*73
1532660847.83,53978,18.69,74200.8,5.07,-3.39,-2.55,0,*74
1532660849.07,53979,18.69,74206.0,5.07,-3.43,-2.63,0,*7D
1532660850.32,53980,18.69,74202.5,5.07,-3.47,-2.55,0,*7A
1532660851.56,53981,18.69,74202.5,5.07,-3.43,-2.55,0,*7F
1532660852.77,53982,18.69,74200.3,5.07,-3.55,-2.79,0,*75
1532660854.02,53983,18.75,74206.8,5.07,-3.47,-2.63,0,*7C
1532660855.26,53984,18.69,74200.0,5.07,-3.43,-2.51,0,*7E
1532660856.51,53985,18.69,74206.0,5.07,-3.43,-2.51,0,*7F
1532660857.7,53986,18.69,74206.5,5.07,-3.27,-2.39,0,*70
1532660858.89,53987,18.69,74204.8,5.07,-3.07,-2.15,0,*7D
1532660860.09,53988,18.69,74204.5,5.07,-3.31,-2.31,0,*71
1532660861.35,53989,18.69,74202.8,5.09,-3.43,-2.51,0,*7D
1532660862.6,53990,18.69,74206.5,5.07,-3.47,-2.63,0,*7E
1532660863.79,53991,18.69,74200.3,5.07,-3.27,-2.39,0,*76
1532660864.99,53992,18.69,74204.8,5.07,-3.19,-2.31,0,*70
1532660866.23,53993,18.69,74206.5,5.07,-3.43,-2.63,0,*79
1532660867.48,53994,18.69,74206.0,5.07,-3.47,-2.55,0,*7F
1532660868.72,53995,18.69,74204.3,5.07,-3.47,-2.55,0,*7E
1532660869.94,53996,18.69,74202.5,5.07,-3.27,-2.55,0,*7B
1532660871.13,53997,18.69,74202.5,5.07,-3.39,-2.43,0,*72
1532660872.35,53998,18.69,74204.3,5.07,-3.39,-2.51,0,*7E
1532660873.6,53999,18.69,74202.0,5.07,-3.43,-2.63,0,*73
1532660874.82,54000,18.69,74204.8,5.07,-3.39,-2.55,0,*75
1532660876.05,54001,18.69,74206.0,5.09,-3.43,-2.43,0,*70
1532660877.28,54002,18.69,74206.0,5.07,-3.39,-2.51,0,*73
1532660878.46,54003,18.69,74204.3,5.07,-2.83,-2.15,0,*72
1532660879.73,54004,18.69,74204.5,5.09,-2.71,-1.87,0,*7E
1532660880.94,54005,18.69,74202.8,5.07,-2.83,-1.87,0,*7C
1532660882.14,54006,18.69,74202.0,5.07,-2.91,-1.95,0,*7F
1532660883.33,54007,18.69,74204.0,5.07,-2.91,-2.31,0,*73
1532660884.54,54008,18.69,74204.8,5.09,-2.39,-1.75,0,*73
1532660885.75,54009,18.69,74204.5,5.07,-2.67,-1.55,0,*75
1532660886.99,54010,18.69,74204.3,5.07,-2.55,-1.43,0,*7B
1532660888.2,54011,18.69,74202.5,5.09,-2.31,-1.63,0,*74
1532660889.44,54012,18.69,74204.0,5.09,-2.07,-1.33,0,*77
1532660890.67,54013,18.69,74208.5,5.09,-2.15,-0.89,0,*45
1532660891.88,54014,18.69,74202.0,5.09,-3.15,-1.75,0,*71
1532660893.11,54015,18.69,74202.0,5.09,-3.07,-1.95,0,*7D
1532660894.33,54016,18.69,74206.0,5.09,-3.19,-2.15,0,*7A
1532660895.52,54017,18.69,74206.3,5.11,-3.15,-2.15,0,*7E
1532660896.71,54018,18.69,74206.0,5.11,-3.27,-2.35,0,*72
1532660897.95,54019,18.69,74202.5,5.07,-3.43,-2.51,0,*74
1532660899.22,54020,18.69,74206.8,5.09,-3.43,-2.63,0,*71
1532660900.47,54021,18.69,74206.5,5.09,-3.39,-2.51,0,*7C
1532660901.73,54022,18.69,74204.5,5.09,-3.47,-2.67,0,*73
1532660903.0,54023,18.69,74202.0,5.09,-3.43,-2.51,0,*73
1532660904.22,54024,18.75,74204.5,5.11,-3.35,-2.51,0,*7C
1532660905.44,54025,18.69,74206.0,5.11,-3.39,-2.51,0,*71
1532660906.66,54026,18.69,74202.5,5.11,-3.39,-2.51,0,*72
1532660907.91,54027,18.69,74200.8,5.11,-3.43,-2.63,0,*7F
1532660909.17,54028,18.69,74202.5,5.09,-3.47,-2.63,0,*7D
1532660910.44,54029,18.69,74200.0,5.09,-3.47,-2.67,0,*78
1532660911.71,54030,18.69,74206.3,5.09,-3.47,-2.67,0,*70
1532660912.98,54031,18.69,74202.5,5.09,-3.47,-2.67,0,*71
1532660914.25,54032,18.69,74206.5,5.09,-3.43,-2.63,0,*72
1532660915.51,54033,18.69,74206.3,5.09,-3.55,-2.63,0,*74
1532660916.76,54034,18.69,74202.8,5.07,-3.47,-2.67,0,*7A
1532660918.02,54035,18.69,74204.0,5.09,-3.47,-2.63,0,*71